Regional Weather Roundup
Issued by NWS

Home | Current Version | Previous Version | Text Only | Print | Product List | Glossary On
Versions: 1 2 3 4 5 6 7 8 9 10 11 12 13 14 15 16 17 18 19 20 21 22 23 24 25 26 27 28 29 30 31 32 33 34 35 36 37 38 39 40 41 42 43 44 45 46 47 48 49 50
000
ASUS43 KDTX 190801
RWRMI
MICHIGAN HOURLY REGIONAL WEATHER ROUNDUP
NATIONAL WEATHER SERVICE DETROIT/PONTIAC MI
400 AM EDT FRI SEP 19 2014

NOTE: "FAIR" INDICATES FEW OR NO CLOUDS BELOW 12,000 FEET WITH NO
SIGNIFICANT WEATHER AND/OR OBSTRUCTION TO VISIBILITY.

MIZ047>049-052>055-059>063-066>070-074>076-081>083-190900-
SOUTHEAST LOWER MICHIGAN

CITY           SKY/WX    TMP DP  RH WIND       PRES   REMARKS
ADRIAN         CLEAR     46  44  93 E5        30.23F
ALMA             N/A     38  37  97 CALM      30.24F FOG
ANN ARBOR      CLEAR     41  38  89 CALM      30.23F FOG
BAD AXE        CLEAR     32  32 100 CALM      30.26S
CARO           CLEAR     34  34  99 CALM      30.24F FOG
DETROIT CITY   CLEAR     48  41  76 N3        30.24F
DETROIT        CLEAR     45  42  89 N5        30.24F
FLINT          CLEAR     41  38  89 E5        30.25F
GROSSE ILE     CLEAR     46  45  93 CALM      30.22F FOG
HILLSDALE      CLEAR     48  48 100 E5        30.21F FOG
HOWELL         CLEAR     42  41  97 CALM      30.23S

CITY           SKY/WX    TMP DP  RH WIND       PRES   REMARKS
JACKSON        CLEAR     47  45  93 E3        30.23R
LAMBERTVILLE   CLEAR     48  45  87 CALM      30.22F
LANSING        CLEAR     45  42  89 SE6       30.24S
LAPEER         CLOUDY    34  34  99 CALM      30.24F FOG
MASON          CLEAR     43  41  95 CALM      30.23S
MONROE         PTCLDY    48  46  93 CALM      30.21F
MT. CLEMENS    CLEAR     41  41 100 NW2       30.22F
PONTIAC        CLEAR     40  37  89 CALM      30.23S FOG
PORT HOPE        N/A     42  39  89 CALM      30.24F
PORT HURON     FOG       34  34 100 CALM      30.25S VSB 1/2
TRI CITIES     CLEAR     41  37  86 NE3       30.25F
TROY           CLEAR     45  41  85 CALM      30.25F
SAGINAW HB     CLEAR     37  37 100 CALM      30.25S FOG
$$
MIZ043>046-050>051-056>058-064>065-071>073-077>080-190900-
SOUTHWEST LOWER MICHIGAN

CITY           SKY/WX    TMP DP  RH WIND       PRES   REMARKS
BATTLE CREEK   PTCLDY    50  47  89 E5        30.21F
BENTON HARBOR  CLEAR     51  49  92 E6        30.18S
BIG RAPIDS     MOCLDY    41  41 100 CALM      30.22F
COLDWATER      CLEAR     50  49  96 SE6       30.20F FOG
FREMONT        FAIR      46  44  93 SE7       30.20F
HOLLAND        CLEAR     50  47  89 E6        30.20F
GRAND RAPIDS   CLEAR     46  45  96 E6        30.22S
IONIA          FAIR      43  43  98 E5        30.22F FOG
KALAMAZOO      PTCLDY    47  45  93 CALM      30.21S FOG
LUDINGTON      CLEAR     49  47  93 SE8       30.18F
MARSHALL       FOG       44  44  99 CALM      30.21S VSB 3/4
MOUNT PLEASANT   N/A     37  36  97 CALM      30.24S FOG
MUSKEGON       CLEAR     49  45  86 E7        30.20F
SOUTH HAVEN    CLEAR     51  50  97 SE5       30.19S FOG
$$
MIZ016>042-190900-
NORTHERN LOWER MICHIGAN

CITY           SKY/WX    TMP DP  RH WIND       PRES   REMARKS
ALPENA         MOCLDY    34  33  96 CALM      30.25F
BEAVER ISLAND  CLOUDY    53  50  91 SE8       30.17F
CADILLAC       CLEAR     43  42  93 SE6       30.20F
CHARLEVOIX     CLOUDY    47  43  86 SE8       30.21F
FRANKFORT      CLEAR     50  45  81 SE5       30.17F
GAYLORD        CLOUDY    42  39  89 S9        30.21F
GRAYLING       CLOUDY    42  41  94 CALM      30.23F
HARBOR SPRINGS MOCLDY    44  39  84 NE7       30.21S
HOUGHTON LAKE  CLOUDY    46  41  82 SE8       30.23F
MANISTEE       CLEAR     46  43  87 E7        30.19F
OSCODA         CLEAR     33  32  98 CALM      30.25F
PELLSTON       MOCLDY    44  39  82 SE10      30.21F
TRAVERSE CITY  CLEAR     50  43  77 VRB5      30.17F
$$
MIZ007>008-015-190900-
EASTERN UPPER MICHIGAN

CITY           SKY/WX    TMP DP  RH WIND       PRES   REMARKS
KINROSS        MOCLDY    39  37  93 SE6       30.21R WCI  35
MACKINAC ISLAN PTCLDY    46  39  79 SE10G26   30.20F
NEWBERRY       CLOUDY    41  41  98 CALM      30.16S
S. S. MARIE    PTCLDY    41  38  89 E5        30.22R
$$
MIZ004>006-011>014-085-190900-
CENTRAL UPPER MICHIGAN

CITY           SKY/WX    TMP DP  RH WIND       PRES   REMARKS
MANISTIQUE     PTCLDY    53  48  83 S7        30.14S
ESCANABA       CLEAR     45  41  87 CALM      30.14S
MENOMINEE      PTCLDY    48  45  87 SW3       30.13S
SAWYER-GWINN   CLEAR     42  40  94 S9        30.11F
$$
MIZ001>003-009>011-084-190900-
WESTERN UPPER MICHIGAN

CITY           SKY/WX    TMP DP  RH WIND       PRES   REMARKS
IRON MOUNTAIN  CLOUDY    47  45  93 SE5       30.12S
HOUGHTON       CLEAR     47  44  90 S12       30.02F
COPPER HARBOR    N/A     51  46  83 SW10G17   30.02F
IRONWOOD       CLEAR     52  50  93 S9G18     30.00F
$$

ABBREVIATIONS USED IN REMARKS
   TC - TEMPERATURE IN CELSIUS
  WCI - WIND CHILL INDEX
   HX - HEAT INDEX
  VSB - VISIBILITY




USA.gov is the U.S. government's official web portal to all federal, state and local government web resources and services.